STARLINK-32784, 62607

Orbit data source: Space-Track

STARLINK-32784, 62607 is a payload satellite owned by SpaceX/Seattle (US) in LEO that was launched on Mon, 13 Jan 2025 UTC via an FALCON 9 launch vehicle from the Air Force Eastern Test Range (AFETR). Payload-class satellites include a variety of spacecraft equipped with specific instruments for various scientific and technological missions. These include communications satellites like Starlink; space stations such as the ISS; scientific satellites like the Hubble; Earth observation satellites from companies like Planet Labs, Umbra, and HawkEye 360; GPS; miniature CubeSats for education and research; and military/defense satellites.

Loading next visibility...
Identifier
62607, 2025-008W
Orbit
LEO
Country
Flag of USUS
Related business
Manufacturer
SpaceX/Seattle
Mission
Operational Commercial Communications
Bus & Motor
STARLINK V2M, Unknown motor
Mass
730 kg wet, ~700 kg dry
Launch date (UTC)
2025-01-13 (10 months ago)
Launch vehicle
FALCON 9
Launch site
Air Force Eastern Test Range (AFETR)
Object type
Payload
Rocket body
Debris
Shape & HBR
Box + 2 Pan, 17.7 m
Radar Cross Section
33.884 m², Large (>1 m²)

Expand to show TLE details & history
Last TLE update: 8 hours ago

TLE from 8 hours ago
0 STARLINK-32784
1 62607U 25008W   25310.87401686  .00025141  00000-0  92004-3 0  9998
2 62607  43.0003 251.3167 0001404 241.3685 118.7026 15.27578690 46843
Epoch: 2025-11-06T20:58Z
TLE epoch observation values (Epoch: 2025-11-06T20:58:35.056Z)
Latitude
Longitude
-109.65544°
Altitude
483.291 km
Speed
7.625 km/s
True Right ascension
16h 45m 16s
True Declination
0° 00' 00"
Sunlit
Object was in daylight at epoch
Visualization orbit readout
Latitude
Unknown
Longitude
Unknown
Altitude
Unknown
Speed
Unknown
Apparent Right ascension
Unknown
Apparent Declination
Unknown
Sunlit
N/A
Visualization observer readout
Local Sidereal Time
01:03:54
Azimuth
Unknown
Elevation
Unknown
Doppler factor
Unknown
Orbital elements
Apogee altitude
485.962 km
Perigee altitude
484.035 km
Semi-major axis
6,863.135 km
Eccentricity
0.00014
Inclination
43.0003°
RAAN
251.3167°
Arg. of periapsis
241.3685°
True anomaly
118.71671°
Mean anomaly
118.7026°
Eccentric anomaly
118.70966°
Mean motion
3.81733 °/min
Orbital period
94.31 mins
BSTAR
0.00092004
Loading maneuver chart data...
Computing Atmospheric mass density...
Loading historical data...
Loading historical data...
Loading historical data...
Loading historical data...
Loading historical data...
Loading historical data...
Loading historical data...

Documentation

Showing up to 5 results
|